Theta_e
349 346 346 346 347 345 347 352 354 353 353 354 354 353 352 351 352 352 353 353 354 355 356 356 355 355 355 356 354 354 353 352 351 351 351 351 352 351 351 352 352 353 353 353 353 354 354 355 355 354 355 356 356 357 358 358 359 358 357 357 357 358 359
350 347 347 346 348 347 347 351 353 353 353 354 354 353 352 352 352 352 353 354 355 355 355 355 355 355 355 355 354 354 353 352 351 351 352 352 352 352 352 352 353 353 354 353 354 355 355 355 355 355 355 356 356 357 357 358 359 358 357 358 358 358 359
350 349 347 347 348 348 348 351 352 352 353 353 353 353 352 352 353 353 354 355 355 355 355 355 355 354 354 354 354 354 353 351 352 352 351 352 352 351 351 352 353 353 353 353 354 354 354 354 355 355 356 356 356 356 357 358 358 357 358 359 358 358 358
351 350 349 348 349 349 350 351 351 351 352 352 352 353 352 353 354 354 355 354 354 355 354 354 354 353 353 353 353 354 353 351 351 351 351 350 351 350 350 352 352 352 352 353 353 353 353 354 355 356 356 356 356 357 357 358 358 358 359 359 359 359 359
354 353 351 351 351 350 351 352 352 352 351 350 351 352 353 353 353 354 354 354 352 353 353 353 352 352 352 352 352 352 352 351 351 351 351 350 350 351 351 351 351 351 351 352 352 353 353 353 353 354 355 356 355 355 356 357 357 358 359 359 359 359 358
356 355 353 352 350 349 350 352 353 352 351 351 351 352 353 353 352 353 353 353 352 351 352 351 350 351 351 351 350 350 350 351 351 351 351 350 350 350 350 350 350 349 350 351 351 352 352 352 351 352 353 354 354 354 355 356 356 357 359 360 360 359 358
357 357 356 354 352 350 349 350 351 351 351 351 350 351 352 352 353 353 352 353 352 351 351 350 350 350 351 349 349 350 350 350 351 351 351 350 350 350 349 348 349 348 348 350 350 351 351 351 351 351 352 353 353 354 354 356 358 357 357 359 361 361 359
355 356 356 356 354 352 350 350 349 349 351 352 351 351 352 352 353 353 353 353 353 352 352 351 350 350 350 350 349 349 349 347 348 349 350 349 349 349 349 348 348 348 348 348 349 350 350 350 351 351 352 352 354 355 356 357 359 357 356 358 360 360 358
354 354 354 355 354 354 355 354 352 350 350 351 352 352 351 353 354 354 354 354 354 354 353 352 351 350 351 351 350 349 349 346 345 346 347 347 347 347 347 347 348 348 349 348 347 348 349 350 350 351 353 354 355 356 357 356 357 355 355 357 359 359 359
356 354 354 354 354 356 357 356 355 354 353 353 353 353 353 352 353 354 354 355 356 356 355 353 353 352 353 353 352 350 348 346 345 345 346 346 345 346 345 345 346 347 348 347 345 346 348 349 350 351 353 354 354 356 356 355 354 353 353 356 358 359 360
355 354 354 354 354 356 356 356 356 356 355 355 354 354 354 353 353 354 354 355 356 356 356 354 353 354 356 356 355 352 350 348 346 345 346 346 344 345 344 344 345 346 347 347 345 344 345 348 349 351 352 353 353 354 355 356 355 354 353 355 357 359 360
353 354 355 355 355 355 356 356 356 356 355 356 356 355 354 354 354 355 354 355 356 357 357 355 352 355 358 358 358 356 354 352 349 347 347 347 346 344 344 344 344 345 347 346 346 345 345 346 348 349 350 351 352 352 355 356 356 356 356 356 357 358 359
352 354 354 354 354 354 356 356 356 356 355 355 356 356 355 355 356 356 356 356 356 357 358 356 353 356 359 360 359 358 357 356 354 352 351 351 351 347 345 346 345 345 346 346 347 346 345 346 346 348 348 349 351 355 357 358 358 359 361 361 360 359 360
353 353 353 354 354 353 354 355 355 356 355 354 354 354 356 356 356 357 357 357 357 357 357 357 356 358 360 360 359 359 359 357 357 357 356 357 357 353 350 349 347 345 347 347 347 347 346 345 345 347 349 349 353 357 359 360 359 358 357 358 360 360 359
353 353 352 353 352 353 353 353 354 356 355 354 354 354 355 355 355 356 355 355 356 357 357 358 357 359 359 359 358 358 358 358 358 358 359 360 360 357 355 354 352 351 350 350 350 349 347 346 346 348 350 352 355 358 358 357 355 351 350 352 355 357 359
353 353 352 352 352 352 352 351 353 354 353 354 354 353 354 354 355 356 355 355 357 357 357 358 358 358 358 358 358 359 359 358 356 356 358 360 361 359 358 357 356 355 355 354 354 353 351 350 350 350 351 354 356 358 356 352 349 348 348 348 349 352 357
353 353 352 352 352 351 351 350 351 352 353 353 353 353 353 353 354 354 354 354 355 355 356 357 358 358 357 356 357 357 357 355 353 355 358 358 359 360 360 358 357 357 357 357 357 356 355 355 354 355 356 356 356 355 352 348 347 347 347 347 348 349 354
354 353 351 351 351 350 350 350 350 351 352 351 352 352 352 352 352 353 353 353 353 354 354 355 356 357 356 356 356 355 353 351 351 353 355 355 356 358 358 357 357 357 357 357 357 356 356 356 356 356 356 355 353 351 348 346 347 347 346 348 348 348 352
353 351 350 350 350 349 349 349 349 350 350 350 350 350 350 351 351 352 353 354 353 353 352 353 355 355 355 355 354 353 353 351 350 351 353 354 355 355 354 355 356 356 356 357 357 356 355 354 353 353 352 352 350 347 345 345 347 347 347 348 347 347 351
351 350 350 349 349 349 349 349 349 349 349 349 349 349 350 350 349 350 352 352 351 350 351 352 353 352 353 353 352 352 352 352 352 352 352 353 354 354 354 355 354 355 355 356 355 355 354 352 351 350 349 349 348 345 343 344 346 347 347 348 347 348 350
350 350 350 349 349 349 349 349 349 349 349 350 349 349 349 349 349 349 348 348 347 346 347 350 350 349 350 350 351 352 352 352 352 352 352 352 352 354 354 353 353 352 353 354 353 351 350 347 346 346 346 346 346 344 342 342 345 345 345 346 346 347 347
349 348 348 348 348 348 349 349 348 348 348 349 349 349 349 349 349 348 347 347 345 344 344 346 347 348 348 348 348 348 348 349 350 350 351 351 351 351 352 352 350 350 351 351 349 347 347 345 343 342 342 344 344 343 342 341 342 343 343 345 345 344 342
347 346 347 347 347 348 348 347 348 348 348 348 349 349 349 349 349 348 348 348 346 345 344 344 345 347 346 346 346 345 346 348 348 348 348 349 349 349 350 350 348 347 348 347 346 344 345 345 342 339 340 341 341 341 342 342 342 343 344 344 343 341 339
346 346 346 346 346 347 347 347 348 348 348 349 348 348 348 349 348 349 349 349 348 348 347 345 344 344 345 346 346 346 346 346 346 346 347 348 348 348 347 346 345 345 346 346 346 343 341 341 339 337 338 339 339 340 341 342 343 343 342 341 339 338 336
346 346 346 346 346 347 347 347 348 348 349 349 347 347 347 347 348 348 349 348 347 347 347 346 344 344 344 346 346 346 346 345 345 345 346 346 346 345 344 343 343 343 343 344 344 341 338 337 336 336 337 338 338 339 340 340 340 339 338 336 335 335 334
345 346 347 347 346 346 347 347 347 348 348 347 346 347 345 345 347 348 347 347 347 346 346 346 345 344 344 345 344 344 344 345 344 344 343 344 344 342 342 343 342 341 340 339 337 334 333 333 333 333 334 335 336 336 336 337 336 334 333 334 334 334 334
346 347 347 347 347 346 346 346 346 346 346 345 345 346 345 345 346 346 346 347 346 346 345 344 344 344 343 343 342 341 342 342 342 341 341 342 342 341 341 341 339 337 335 334 332 331 330 330 330 331 333 334 336 335 334 334 333 331 332 334 335 335 335
346 346 346 346 346 345 345 345 345 343 343 344 345 345 346 346 346 345 345 346 345 344 343 342 342 342 340 340 339 338 339 340 339 339 338 339 339 339 337 335 334 332 331 331 331 330 328 328 329 330 332 333 335 334 333 332 332 331 332 334 335 334 334
347 345 345 345 344 344 344 344 343 341 341 342 344 346 346 347 346 345 345 344 343 342 342 341 340 339 338 337 336 335 336 337 337 336 335 335 335 335 333 332 332 330 329 329 328 327 327 328 329 330 331 331 333 333 332 331 331 331 332 333 334 334 333
346 343 343 344 343 343 343 342 342 340 340 341 343 345 346 346 345 344 343 343 342 341 341 340 339 338 337 335 335 334 334 336 335 335 334 334 333 333 332 332 332 331 330 330 330 329 330 331 331 331 331 331 332 332 332 331 331 331 332 333 333 332 332
344 342 343 343 342 343 342 342 342 342 341 342 343 344 345 344 344 343 342 341 340 340 340 339 338 337 336 335 334 334 333 335 335 335 335 334 333 333 332 332 332 332 331 331 331 331 332 333 332 332 331 331 331 331 332 332 331 331 332 332 331 331 330
341 341 341 341 341 342 342 341 342 342 343 344 344 344 344 343 343 343 342 341 341 340 339 338 337 337 336 335 335 335 334 334 334 334 334 334 333 333 332 331 331 330 330 329 329 330 331 332 332 332 331 331 331 332 332 332 331 331 331 331 330 328 327
341 341 339 338 339 341 342 342 342 342 343 343 343 342 342 342 342 342 341 341 341 340 339 338 337 337 336 335 334 333 332 331 330 330 329 328 328 328 327 328 327 327 327 326 325 326 328 329 331 332 331 330 330 331 332 333 332 331 331 330 328 325 324
342 341 339 339 340 342 342 342 342 341 341 341 340 339 339 339 339 340 340 340 340 340 339 338 337 337 335 333 330 329 328 327 327 327 327 326 326 326 325 326 328 328 329 328 327 327 327 329 331 332 331 329 329 330 332 332 332 332 331 329 327 326 325
341 340 340 340 341 342 342 341 341 340 340 340 339 339 338 338 337 337 338 339 339 339 338 337 336 334 332 330 328 326 325 324 323 323 323 323 323 323 324 326 328 329 329 329 329 329 329 330 331 331 331 330 329 329 331 331 331 330 329 328 328 327 326
341 339 340 340 340 340 341 340 339 339 339 339 339 339 338 338 338 337 337 337 338 338 336 334 333 332 331 330 329 328 326 324 323 322 321 320 320 321 322 324 326 327 327 327 328 329 329 330 331 332 332 331 330 330 330 330 330 329 328 328 328 327 326
339 338 339 340 339 339 339 339 338 339 339 339 339 338 338 337 337 337 338 338 337 336 336 335 334 333 332 332 331 330 329 328 327 326 324 322 322 322 323 324 324 324 325 326 327 328 328 329 330 331 331 331 330 330 329 329 329 328 326 326 326 324 323
339 337 337 338 339 338 338 338 339 339 339 338 338 337 336 336 336 336 337 338 337 337 336 336 335 334 334 333 332 332 331 330 330 329 328 326 324 324 324 325 324 324 324 324 326 327 328 328 329 330 330 330 329 328 328 327 327 325 324 324 323 322 321
Wind_Speed
9 10 11 10 11 12 12 13 16 17 18 19 19 19 19 18 17 17 17 19 21 21 20 19 18 18 18 17 16 15 15 14 14 14 13 12 11 10 11 10 9 8 8 7 7 7 6 6 7 7 7 8 8 7 7 6 6 6 6 6 6 6 6
9 9 10 10 10 11 13 15 17 17 18 18 19 19 20 19 19 18 18 19 21 21 21 21 20 19 18 18 17 17 17 16 15 14 13 12 11 10 10 9 9 8 8 7 6 6 6 7 7 7 7 8 8 7 7 6 6 6 6 5 6 6 6
8 9 10 11 10 11 12 15 16 17 17 18 18 19 20 20 21 20 19 20 21 21 21 22 22 20 19 18 17 18 18 18 16 15 14 13 13 12 11 10 9 9 9 8 7 7 7 7 8 8 8 8 7 7 7 7 7 7 6 6 6 6 7
7 8 9 10 9 9 10 13 16 17 17 18 19 20 21 22 21 20 20 20 21 21 21 21 22 21 20 19 19 18 19 20 18 17 16 14 14 13 12 11 11 10 9 9 8 7 6 7 7 8 8 8 7 7 7 7 7 7 6 6 7 7 7
6 7 7 6 6 6 7 11 15 16 16 17 18 19 20 21 20 19 20 20 20 21 21 20 20 20 20 19 19 18 19 21 20 18 17 15 14 13 12 12 12 11 11 10 9 8 7 7 8 8 8 9 9 8 8 8 8 7 7 8 8 8 8
4 5 6 6 6 5 5 8 12 15 15 15 16 17 17 19 20 20 19 20 20 20 20 20 19 19 19 19 19 18 18 20 20 19 17 16 15 14 13 12 12 12 12 11 9 9 9 9 9 8 9 9 9 9 9 8 8 7 7 8 8 8 8
1 2 3 5 6 6 6 8 10 12 14 14 15 16 16 18 19 19 18 19 20 20 20 20 20 19 19 19 18 18 18 19 19 19 18 17 15 15 14 13 13 12 11 11 10 9 9 10 10 9 9 9 9 9 8 8 7 7 7 8 8 8 9
1 1 2 3 5 6 7 9 10 10 12 13 14 15 17 17 18 19 20 19 19 19 19 19 20 19 18 18 18 19 19 18 18 18 19 18 17 16 15 14 13 13 12 11 10 10 10 10 10 10 10 9 9 9 9 8 8 9 10 9 9 9 8
2 2 3 3 4 5 6 8 9 9 10 13 14 15 16 16 17 19 20 19 19 20 19 19 18 18 18 18 18 18 18 18 18 18 19 19 18 17 16 15 14 13 13 13 12 11 11 11 10 10 9 9 9 8 8 9 10 11 11 10 9 8 8
2 3 3 4 4 5 6 7 7 6 8 10 12 14 15 16 16 16 18 18 19 20 21 19 16 15 17 18 18 18 17 17 18 18 18 19 18 17 16 15 14 13 13 13 12 12 11 11 10 10 9 9 9 9 8 9 11 12 11 11 9 7 7
2 3 3 4 4 5 6 7 6 6 6 8 10 12 13 15 15 15 17 18 18 18 19 19 16 15 17 18 18 17 17 17 17 17 17 18 17 16 16 15 14 14 13 13 13 13 12 11 11 10 10 10 10 10 9 9 10 10 11 11 9 7 7
2 2 2 3 3 4 5 6 6 6 5 6 8 10 11 13 14 15 16 17 18 17 18 19 19 17 17 18 17 16 17 17 16 16 16 16 16 16 15 15 15 14 14 13 13 13 13 12 11 11 11 10 10 9 8 8 8 8 9 9 7 6 8
2 2 2 2 2 3 4 5 7 7 5 2 2 4 6 9 11 13 15 16 17 17 18 19 19 18 18 18 17 16 16 16 15 15 15 15 15 15 15 15 15 15 14 13 13 13 13 13 12 11 10 10 9 8 7 6 5 4 4 5 5 5 6
3 2 2 1 2 3 3 4 5 7 7 6 4 3 3 5 7 9 12 14 16 17 18 18 18 18 18 17 17 16 16 16 14 14 13 13 13 13 13 14 14 14 13 13 13 13 13 13 12 11 10 9 8 6 4 2 2 2 3 3 2 3 4
3 3 2 2 2 2 3 3 3 5 7 8 7 6 5 5 6 8 10 13 15 17 17 17 18 19 18 17 17 16 16 16 15 13 12 11 10 11 12 13 13 12 12 12 12 11 11 11 11 10 9 8 6 5 3 3 4 5 5 4 4 4 3
3 2 2 1 2 2 1 0 0 1 4 6 6 7 6 5 5 7 9 11 14 16 17 17 18 18 18 16 16 16 16 17 17 16 14 12 11 11 11 12 12 11 11 11 11 11 11 10 10 10 9 8 6 4 3 5 8 7 7 7 7 5 4
3 2 1 0 2 2 3 3 2 2 1 1 3 5 6 6 6 7 9 11 13 15 17 18 19 18 17 16 16 16 15 15 15 14 14 14 13 11 11 11 12 12 11 11 11 11 10 9 9 8 6 5 5 3 3 6 8 6 7 7 7 5 3
3 2 2 2 2 3 3 3 2 2 2 3 3 3 4 5 6 8 9 10 12 14 16 17 17 16 16 16 16 16 15 16 16 14 12 13 13 13 13 13 13 13 12 11 11 10 9 9 8 6 4 3 3 3 2 4 5 5 5 5 4 2 1
2 2 3 3 3 2 2 2 2 2 1 1 3 3 4 4 5 6 7 9 11 13 15 15 15 15 16 16 15 15 15 16 18 17 14 13 14 14 14 14 13 13 11 9 9 8 8 9 8 7 5 4 3 4 1 3 3 3 3 3 3 3 4
1 2 3 3 4 3 2 2 2 2 3 2 2 3 3 4 5 6 7 10 12 12 12 13 13 12 13 14 13 14 15 16 17 17 16 16 15 14 14 14 14 13 10 10 9 8 8 8 7 7 5 4 4 4 2 1 1 2 1 1 1 4 7
2 2 2 3 4 4 3 3 3 4 4 3 3 4 3 3 5 7 9 12 13 12 11 11 11 10 11 12 12 11 12 12 13 15 15 14 14 13 14 14 14 13 12 13 12 11 9 7 5 6 5 5 4 4 4 2 2 2 2 2 4 6 7
3 3 3 3 3 4 3 2 3 4 4 4 4 4 4 4 5 7 8 9 10 11 12 12 10 10 11 11 12 12 11 10 11 11 11 11 12 13 13 13 14 14 14 15 14 12 11 9 7 6 7 7 6 5 5 4 4 4 4 5 7 8 10
3 2 3 3 3 3 3 2 3 5 5 6 6 5 4 4 4 6 8 8 7 8 9 10 10 10 10 10 11 12 11 10 10 11 10 10 12 13 11 11 14 16 15 15 14 12 11 11 9 7 8 9 7 8 10 10 9 8 7 7 8 10 13
3 3 3 3 3 4 4 3 4 5 6 7 6 5 4 5 5 6 6 6 5 5 6 8 8 7 8 8 8 9 9 9 9 10 9 10 11 12 11 12 15 15 14 14 13 12 12 13 12 11 12 12 12 14 16 15 12 11 11 11 13 15 16
4 4 4 4 4 5 4 3 3 4 3 4 6 6 5 5 5 7 8 8 7 6 5 6 7 6 5 6 5 6 7 9 10 10 9 9 10 11 11 12 13 13 13 14 15 15 14 13 14 16 17 17 17 18 19 17 14 13 14 16 17 19 19
5 4 4 5 5 5 6 4 3 3 3 4 5 6 5 5 5 7 9 9 9 9 7 6 8 8 7 7 8 8 9 11 12 12 12 11 11 11 12 13 14 15 17 18 17 17 15 13 15 18 18 17 17 17 17 18 18 17 17 18 19 20 21
6 5 6 7 7 6 7 6 5 6 6 4 5 6 5 6 7 7 8 9 10 11 11 9 9 9 9 10 11 10 12 13 13 14 15 15 15 16 16 16 16 16 18 18 18 19 18 17 19 21 20 18 18 18 18 20 21 20 20 21 20 20 21
7 7 8 8 7 7 8 8 8 10 8 4 2 5 5 7 9 9 10 12 13 13 12 11 11 10 12 13 12 12 14 15 12 13 15 17 19 19 17 16 15 15 16 20 22 22 21 21 23 24 23 20 19 19 19 19 19 19 19 20 19 20 21
7 7 7 7 6 6 7 7 7 8 7 3 2 4 6 8 12 13 13 14 15 12 12 13 12 12 14 15 14 13 15 15 13 14 16 17 18 18 19 19 18 18 21 24 26 24 23 22 23 23 21 19 17 16 16 16 17 17 18 19 21 22 23
7 7 6 7 7 6 6 6 5 8 11 9 4 4 7 10 14 15 15 14 13 12 13 13 13 13 15 15 14 14 14 13 13 15 16 18 20 19 19 19 19 19 20 20 20 20 19 19 19 19 18 18 18 17 17 16 16 17 19 21 23 25 24
8 7 8 8 8 6 6 7 7 8 11 10 8 9 11 12 13 15 14 12 12 13 14 15 15 15 16 16 16 16 15 16 16 15 15 16 17 17 16 16 17 16 15 14 15 16 15 15 16 17 17 17 18 19 17 16 17 19 22 23 24 24 24
8 8 8 8 7 7 9 11 10 10 12 12 12 12 12 12 12 14 13 12 12 14 15 17 18 18 17 17 18 18 17 18 18 17 16 15 14 14 14 14 14 14 13 14 14 14 15 16 16 17 17 18 19 19 18 17 17 20 22 24 24 24 24
9 8 7 7 7 9 12 13 11 12 13 13 13 14 13 13 13 13 13 13 14 15 16 18 19 18 16 17 17 17 17 17 17 16 15 14 13 13 13 12 13 13 13 13 14 14 15 16 17 16 17 19 21 20 19 19 19 19 21 22 22 23 25
10 9 8 9 11 12 13 13 14 14 14 14 14 14 15 15 15 14 14 15 16 17 17 17 18 18 16 15 15 15 15 15 15 14 13 13 13 13 12 11 11 11 10 11 11 12 14 15 16 16 17 19 21 22 21 20 20 20 20 19 19 20 21
10 11 11 12 13 13 13 13 15 16 15 14 14 15 15 15 15 15 16 16 16 17 18 18 17 17 16 16 16 16 15 15 14 14 14 15 16 16 15 14 13 12 11 11 11 12 13 15 16 16 16 18 20 21 21 20 20 20 21 21 19 18 17
11 11 12 13 13 14 14 14 16 17 15 14 14 15 15 15 15 15 15 15 16 17 16 16 16 15 15 15 15 15 15 15 15 15 15 15 16 18 18 17 16 15 14 14 13 13 14 16 16 16 17 19 19 18 19 21 22 22 22 21 19 17 16
11 11 12 13 13 14 15 15 15 15 14 13 12 13 14 15 16 15 14 13 14 15 14 13 13 14 13 13 13 13 13 14 14 14 14 14 15 16 18 18 18 17 16 15 14 14 15 16 17 19 21 22 21 20 21 23 24 23 22 20 19 17 16
12 11 12 12 13 14 15 15 15 14 14 13 13 12 13 13 14 15 14 13 12 12 12 11 11 12 12 12 12 12 12 13 13 13 14 14 13 14 15 16 17 17 17 16 16 16 16 17 19 21 23 24 25 26 26 25 24 23 21 20 19 18 17
Wind_Direction
203 215 221 213 204 204 200 196 194 191 188 189 191 191 190 189 188 186 185 186 187 187 188 190 191 192 193 194 195 196 197 197 195 195 198 201 204 204 202 202 202 203 208 206 203 207 210 212 217 217 213 214 221 227 232 236 240 241 239 240 247 254 258
200 214 231 228 210 205 204 199 198 195 192 192 193 193 192 191 189 190 188 188 190 190 189 190 192 194 196 197 197 196 197 198 197 199 200 201 204 206 207 208 206 205 210 213 206 205 210 211 212 215 215 220 224 225 232 238 240 244 242 239 246 252 256
191 202 226 234 221 212 207 199 199 200 197 195 195 194 194 193 191 191 189 189 191 192 192 191 192 195 197 199 200 199 199 200 200 203 205 205 205 205 206 208 211 211 210 213 214 213 214 210 208 214 216 223 227 222 229 238 241 244 242 239 246 249 252
184 190 210 231 230 221 211 201 200 202 202 201 199 196 196 194 193 193 192 191 191 193 195 194 193 196 197 199 202 202 202 203 204 207 209 210 208 207 207 207 210 214 211 212 216 216 215 208 207 211 214 222 227 225 229 238 241 242 237 238 244 247 250
175 181 191 214 224 221 216 207 203 204 207 207 203 201 198 192 192 198 199 197 196 195 196 197 196 197 198 199 202 204 204 205 206 209 211 212 211 210 210 210 209 211 211 213 215 212 213 216 216 212 212 218 223 226 229 231 235 235 230 234 243 248 252
169 181 189 194 195 206 223 219 211 208 208 209 205 203 200 193 194 202 203 202 203 200 197 199 200 199 200 201 203 204 205 206 207 209 211 211 211 212 213 214 213 211 210 212 214 212 212 220 225 222 220 222 224 226 227 227 230 229 223 229 239 249 259
162 186 199 198 193 197 211 221 222 214 207 206 205 201 200 198 197 199 202 205 208 206 202 201 202 202 203 204 205 205 206 207 207 209 211 209 210 213 214 214 214 213 212 213 216 216 216 220 225 226 228 230 232 232 230 227 229 232 232 231 234 244 255
314 285 248 231 210 200 201 210 221 221 209 203 203 202 202 201 196 194 198 203 206 209 210 206 203 202 203 205 208 209 208 208 208 208 211 211 211 212 214 213 212 212 213 215 217 219 221 223 224 224 227 231 235 236 236 235 235 237 236 233 233 242 252
343 307 275 257 230 209 196 196 205 216 210 201 200 201 202 202 198 195 198 199 199 203 210 213 209 203 202 205 208 210 211 210 208 208 210 214 215 215 215 213 211 211 215 219 220 220 220 223 224 222 223 230 236 240 244 250 252 253 249 240 237 244 255
322 300 283 264 240 216 200 188 183 199 206 199 197 199 199 201 201 200 200 198 197 200 203 209 213 205 202 205 208 209 210 211 211 209 210 214 217 218 219 218 215 216 220 223 225 223 219 220 223 223 224 230 238 240 243 247 252 260 263 254 245 243 250
296 300 292 269 245 222 215 200 182 186 200 203 202 199 200 201 202 204 204 200 201 202 199 201 208 207 202 205 208 208 209 211 212 211 212 216 219 219 221 222 221 221 224 227 229 229 224 220 221 225 228 232 239 242 241 240 245 253 258 256 252 243 243
280 291 301 285 258 230 222 210 194 185 189 210 213 203 200 201 202 205 208 206 204 203 198 197 202 203 199 201 205 206 208 210 212 213 215 219 222 222 222 223 224 225 227 228 230 231 229 225 226 229 232 236 242 246 245 244 248 249 249 256 259 248 246
272 276 295 299 273 241 223 217 208 191 175 180 227 214 202 202 204 205 209 210 208 204 199 199 202 201 198 197 197 199 202 206 210 213 216 218 222 224 224 226 227 228 228 229 231 232 230 230 231 232 236 239 240 242 246 252 259 257 253 263 266 253 252
263 257 246 238 247 239 226 224 211 194 183 172 172 195 194 195 204 207 210 213 211 206 202 200 200 199 197 194 193 193 196 198 202 208 212 215 220 224 225 228 232 232 231 230 229 230 231 234 235 233 233 234 231 229 231 239 248 256 270 289 297 285 274
253 251 241 218 203 207 222 224 203 190 189 178 174 185 191 194 200 204 211 213 212 208 203 199 198 198 197 194 194 194 190 188 190 195 201 206 212 220 225 227 231 233 232 231 231 231 234 237 238 236 234 229 223 221 213 222 247 264 281 297 317 321 305
235 246 254 220 143 120 132 171 125 188 194 187 188 192 192 197 204 206 208 209 210 208 202 199 199 199 198 196 195 190 183 183 188 190 192 196 201 210 218 220 222 224 226 229 232 234 235 235 235 238 238 229 219 209 206 235 254 271 287 296 308 317 309
217 214 243 99 93 79 71 65 48 18 340 248 230 213 202 202 209 217 214 209 210 207 200 200 201 197 196 199 198 192 187 191 199 197 192 192 193 196 204 211 214 214 217 222 226 228 230 230 229 231 231 223 208 175 186 242 261 283 300 306 314 321 309
196 172 125 76 59 57 58 61 59 38 5 344 328 295 248 226 222 225 220 211 211 208 202 203 202 193 191 196 196 193 193 197 206 209 202 197 195 193 198 205 207 206 209 215 218 220 223 222 219 213 202 201 182 143 178 266 285 305 315 321 330 1 42
173 146 120 107 101 87 69 72 80 74 52 320 305 297 284 260 237 227 213 199 200 203 201 204 206 197 194 197 196 194 194 197 204 210 210 203 199 197 200 203 202 202 204 203 202 204 209 210 205 195 188 183 152 114 119 285 309 328 331 335 349 52 76
152 141 131 127 124 113 98 111 127 138 143 161 223 231 246 255 232 216 205 194 194 201 200 198 202 199 194 199 202 201 200 199 201 204 205 204 202 199 198 197 197 198 193 182 176 175 183 189 182 175 170 162 142 108 93 12 360 24 21 360 57 102 104
150 152 130 113 111 114 123 142 154 155 152 151 176 192 196 212 205 200 206 204 203 208 207 198 195 194 193 198 202 203 206 206 203 201 200 202 204 202 199 200 200 196 185 175 168 163 166 164 150 145 136 125 124 108 84 59 45 67 88 102 119 121 116
129 123 111 107 109 121 134 150 150 153 163 169 178 179 172 181 186 179 186 200 201 200 204 206 202 198 199 204 205 206 212 217 217 210 199 196 206 209 205 199 191 182 175 171 165 163 169 164 142 129 118 110 110 104 85 63 60 76 92 106 117 114 104
112 111 111 113 107 114 131 161 166 164 176 185 191 185 158 160 178 168 166 178 177 172 189 205 210 206 204 208 212 213 214 216 215 208 197 195 204 203 189 173 169 169 167 165 160 158 163 158 143 125 113 108 106 97 87 80 83 96 107 114 118 109 102
138 130 116 116 116 124 140 162 160 162 181 187 178 160 145 158 174 163 147 144 143 142 166 185 189 196 201 200 203 205 201 195 191 188 187 190 191 184 167 159 164 168 169 169 165 159 153 145 134 120 112 109 103 97 94 92 97 110 116 117 114 109 106
143 127 117 120 121 127 130 128 136 150 173 168 148 140 147 159 162 150 131 121 121 121 132 147 143 147 169 178 177 180 177 172 169 168 170 172 174 174 171 169 174 177 173 169 162 152 142 133 124 116 112 108 103 99 100 103 111 119 120 119 115 110 109
132 121 112 104 94 102 106 101 110 111 89 109 140 155 170 169 150 137 130 128 127 123 119 118 123 128 135 137 140 150 156 159 159 158 161 163 164 168 174 179 183 176 162 151 142 135 127 117 108 101 96 94 93 92 99 110 117 119 114 109 107 109 111
118 111 97 87 81 88 93 86 79 68 59 80 142 157 176 175 151 130 129 128 121 113 110 111 117 118 115 119 130 140 144 146 147 148 155 161 163 164 167 169 167 156 141 132 127 125 119 108 102 97 91 91 96 100 107 115 118 115 109 104 105 110 111
121 112 97 89 85 85 89 89 81 68 53 42 133 153 170 162 137 126 125 118 109 106 108 111 112 110 112 122 129 130 133 138 137 136 144 154 157 155 148 139 133 127 123 123 124 122 116 109 106 102 97 97 102 106 111 116 117 113 109 107 108 109 107
116 110 99 97 97 89 94 103 102 103 113 130 170 171 163 138 122 119 113 105 104 108 110 110 110 111 114 121 121 117 123 133 131 128 134 140 140 134 126 123 124 121 120 121 120 116 112 110 108 104 102 103 103 103 104 108 110 110 110 111 111 107 104
117 111 102 106 111 103 102 113 121 134 141 139 131 136 134 122 115 112 106 102 105 108 107 107 112 113 110 110 109 109 113 119 119 119 124 128 127 124 121 123 124 120 119 120 119 116 114 113 110 109 111 112 108 105 103 101 102 109 116 118 114 109 107
117 115 111 110 113 110 108 114 122 130 132 129 126 125 123 120 114 106 102 102 103 104 105 108 111 110 107 106 109 111 111 109 108 107 109 115 118 117 119 121 119 117 119 120 119 118 118 117 114 113 114 112 110 110 108 104 104 111 117 118 115 113 115
114 117 119 116 119 121 117 118 125 131 130 129 128 121 116 115 111 105 106 110 110 109 110 111 111 110 108 109 112 113 112 109 108 108 108 110 111 111 115 118 117 116 119 120 121 122 122 121 119 117 116 116 115 114 112 110 111 114 117 117 115 114 115
113 110 114 126 139 137 128 129 135 134 126 123 120 116 114 112 109 107 111 118 121 122 119 115 114 113 113 113 113 113 111 109 109 110 110 108 107 108 110 115 116 116 117 119 122 124 124 124 123 122 121 121 120 118 117 118 118 119 119 118 114 113 111
113 104 112 135 146 139 131 133 135 128 119 116 115 114 114 113 111 110 110 113 119 124 123 121 121 122 120 117 112 109 108 107 107 106 103 100 104 104 101 102 107 103 99 103 111 120 126 127 124 123 124 125 125 125 124 123 124 127 129 126 123 120 118
118 114 123 135 137 132 129 130 128 123 118 117 116 114 111 109 108 108 109 111 117 121 122 122 123 122 119 116 112 110 109 106 104 103 101 101 104 103 96 96 99 96 93 98 103 112 123 126 123 123 125 126 128 132 132 131 134 138 139 135 133 131 129
127 125 132 136 133 130 129 127 124 121 118 115 114 114 112 108 104 104 107 113 118 120 120 120 120 118 117 116 114 114 113 109 105 104 104 105 105 101 97 98 103 105 104 104 105 113 124 127 124 125 129 128 128 133 137 139 141 143 141 138 137 137 133
137 134 141 144 138 134 134 133 129 124 121 117 116 117 117 115 113 110 107 110 117 118 116 115 117 117 117 116 113 113 116 116 112 107 107 107 106 104 101 99 99 100 102 106 112 120 128 130 130 133 135 134 130 130 134 139 141 141 138 134 132 132 129
142 139 148 153 147 142 143 144 140 134 130 129 128 125 124 124 124 122 118 119 125 125 120 120 122 121 120 119 115 113 116 120 120 116 113 111 110 111 111 108 103 98 96 102 112 120 124 128 132 134 136 135 133 132 134 138 139 138 134 131 128 128 129